Flag for Mexico Weather past 2 weeks in San Luis Potosi, San Luis Potosí, Mexico

Now
61 °F

Partly cloudy.


Feels Like: 61 °F
Forecast: 59 / 79 °F
Wind: No wind

Location: San Luis Potosi - S. L. P.

Current Time: Aug 20, 2014 at 3:53:49 AM

Latest Report: Aug 20, 2014 at 2:46 AM


Visibility: 10 mi

Pressure: 30.22 "Hg

Humidity: 72%

Dew point: 52 °F

Location of San Luis PotosiLocation

Historic Weather in San Luis Potosi — Graph

°F

San Luis Potosi temperature yesterday

Maximum temperature yesterday: 82 °F (at 3:51 PM)
Minimum temperature yesterday: 54 °F (at 7:46 AM)
Average temperature yesterday: 69 °F

Past Weeks' High & Low Weather Summary

 TemperatureHumidityPressure
High82 °F (Aug 16, 4:47 PM)100% (Aug 7, 7:02 AM)30.37 "Hg (Aug 7, 7:02 AM)
Low54 °F (Aug 7, 7:02 AM)26% (Aug 16, 4:47 PM)29.67 "Hg (Aug 18, 3:50 PM)
Average68 °F61%30.12 "Hg
* Reported Aug 5 2:53 AM — Aug 20 2:46 AM, San Luis Potosi, Weather by CustomWeather, © 2014

Note: Actual official high and low records may vary slightly from our data, if they occured in-between our weather recording intervals... More about our weather records

Advertising

San Luis Potosi weather history for previous 24 hours

 ConditionsComfort  
Time TempWeatherWind HumidityBarometerVisibility
2:46 AM
Aug 20
61 °FPartly cloudy.No wind72%30.22 "Hg10 mi
10:47 PM
Aug 19
66 °FPassing clouds.7 mph73%30.20 "Hg10 mi
8:50 PM70 °FPartly sunny.9 mph57%30.13 "Hg10 mi
7:50 PM72 °FBroken clouds.12 mph57%30.11 "Hg15 mi
6:48 PM79 °FBroken clouds.14 mph30%29.67 "Hg15 mi
5:51 PM79 °FScattered clouds.10 mph30%30.09 "Hg15 mi
4:49 PM77 °FBroken clouds.14 mph39%30.12 "Hg15 mi
3:51 PM82 °FPartly sunny.No wind32%29.68 "Hg15 mi
2:48 PM79 °FPartly sunny.No wind34%30.18 "Hg15 mi
1:54 PM75 °FPartly sunny.No wind47%30.22 "Hg15 mi
12:51 PM75 °FPartly sunny.5 mph47%29.80 "Hg15 mi
11:55 AM72 °FPartly sunny.No wind50%30.28 "Hg12 mi
8:53 AM61 °FPassing clouds.No wind83%30.26 "Hg5 mi
7:46 AM54 °FPassing clouds.No wind94%30.24 "Hg4 mi
5:51 AM57 °FClear.No wind94%30.21 "Hg10 mi
4:46 AM59 °FClear.No wind88%30.21 "Hg10 mi
Weather by CustomWeather, © 2014

See weather overviewHow to use our weather pages